Location: Campestrin
(46.4667°N, 11.7167°E)
Time: 04:45:33
(UTC+00:00)

Cosmos 1869 - Pass Details

Date: 18 April 2021
Orbit: 519 x 562 km, 82.5° (Epoch: 16 May)

Event Time Altitude Azimuth Distance (km) Brightness Sun altitude
Exits shadow 21:18:27 45° 329° (NNW) 749 4.3 -27.0°
Drops below altitude 10° 21:21:31 10° 1° (N) 1,811 6.7 -27.3°
Sets 21:23:42 0° 6° (N) 2,700 7.6 -27.5°
